Zurück zum Katalog

PSYCHE

AktivWissenschaftHCO
NORAD 58049·PAYLOAD·🇺🇸 United States

Gestartet Oct 13, 2023 von Cape Canaveral Space Force Station

Loading…

TLE

VeraltetSource: Space-Track

Epoche: Oct 13, 2023, 14:28 UTC

1 58049U 23157A   23286.60289039  .00001209 -37902-5  00000-0 0  9991
2 58049  30.0000  47.5426 0467200 123.5100 359.9800 15.29658471    02

Verfolge PSYCHE in Echtzeit mit AllMySat

Download on the App Store